Friday Harbor, WA

10:22 PM PST on January 19, 2017 (GMT -0800)
Friday Harbor

Weather History for KFHR - September, 2012

Change the Weather History Date:

Sunday, September 16, 2012

  Actual Average Record
Temperature  
Mean Temperature 60 °F -  
Max Temperature 75 °F 64 °F 75 °F (2008)
Min Temperature 46 °F 45 °F 41 °F (1999)
Degree Days  
Heating Degree Days 6    
Growing Degree Days 10 (Base 50)    
Moisture  
Dew Point 49 °F    
Average Humidity 72    
Maximum Humidity 96    
Minimum Humidity 38    
Precipitation  
Precipitation 0.00 in - - ()
Sea Level Pressure  
Sea Level Pressure 30.19 in    
Wind  
Wind Speed 2 mph (North)    
Max Wind Speed 12 mph    
Max Gust Speed -    
Visibility 10 miles    
Events      
Averages and records for this station are not official NWS values.
T = Trace of Precipitation, MM = Missing Value Source: NWS Daily Summary

Daily Weather History Graph

Daily Weather History Graph

Search for Another Location

Airport or City:

Trip Planner

Search our weather history database for the weather conditions in past years. The results will help you decide how hot, cold, wet, or windy it might be!

Date:

Astronomy

Sep. 16, 2012 Rise Set
Actual Time 6:51 AM PDT 7:21 PM PDT
Civil Twilight 6:19 AM PDT 7:52 PM PDT
Nautical Twilight 5:42 AM PDT 8:30 PM PDT
Astronomical Twilight 5:03 AM PDT 9:08 PM PDT
Moon 7:45 AM PDT (9/16) 7:18 PM PDT (9/16)
Length of Visible Light 13h 33m
Length of Day
12h 30m
New Moon, 1% of the Moon is Illuminated
Sep 16
New Moon
Sep 22
First Quarter
Sep 29
Full
Oct 8
Last Quarter
Oct 15
New

Hourly Weather History & Observations

Time (PDT) Temp. Dew Point Humidity Pressure Visibility Wind Dir Wind Speed Gust Speed Precip Events Conditions
12:53 AM 48.0 °F 46.0 °F 93% 30.20 in 10.0 mi Calm Calm - N/A   Clear
1:53 AM 46.9 °F 45.0 °F 93% 30.21 in 10.0 mi Calm Calm - N/A   Clear
2:53 AM 46.0 °F 45.0 °F 96% 30.21 in 10.0 mi Calm Calm - N/A   Clear
3:53 AM 48.0 °F 46.0 °F 93% 30.20 in 10.0 mi Calm Calm - N/A   Clear
4:53 AM 52.0 °F 48.0 °F 86% 30.21 in 10.0 mi Calm Calm - N/A   Clear
5:53 AM 52.0 °F 48.9 °F 89% 30.21 in 10.0 mi WNW 3.5 mph - N/A   Clear
6:53 AM 53.1 °F 50.0 °F 89% 30.22 in 10.0 mi NW 3.5 mph - N/A   Clear
7:53 AM 53.1 °F 51.1 °F 93% 30.24 in 10.0 mi Calm Calm - N/A   Clear
8:53 AM 60.1 °F 52.0 °F 75% 30.25 in 10.0 mi Variable 3.5 mph - N/A   Clear
9:53 AM 63.0 °F 51.1 °F 65% 30.25 in 10.0 mi North 6.9 mph - N/A   Clear
10:53 AM 66.0 °F 52.0 °F 60% 30.23 in 10.0 mi North 5.8 mph - N/A   Clear
11:53 AM 66.9 °F 51.1 °F 57% 30.23 in 10.0 mi North 9.2 mph - N/A   Clear
12:53 PM 70.0 °F 51.1 °F 51% 30.22 in 10.0 mi North 11.5 mph - N/A   Clear
1:53 PM 71.1 °F 48.9 °F 45% 30.20 in 10.0 mi North 10.4 mph - N/A   Clear
2:53 PM 73.0 °F 48.0 °F 41% 30.18 in 10.0 mi North 8.1 mph - N/A   Clear
3:53 PM 73.9 °F 46.9 °F 38% 30.17 in 10.0 mi North 9.2 mph - N/A   Clear
4:53 PM 73.9 °F 46.9 °F 38% 30.15 in 10.0 mi North 6.9 mph - N/A   Clear
5:53 PM 64.9 °F 50.0 °F 58% 30.14 in 10.0 mi Calm Calm - N/A   Clear
6:53 PM 60.1 °F 50.0 °F 69% 30.14 in 10.0 mi Calm Calm - N/A   Clear
7:53 PM 57.0 °F 48.0 °F 72% 30.14 in 10.0 mi Calm Calm - N/A   Clear
8:53 PM 54.0 °F 46.9 °F 77% 30.14 in 10.0 mi Calm Calm - N/A   Clear
9:53 PM 54.0 °F 48.0 °F 80% 30.14 in 10.0 mi Calm Calm - N/A   Clear
10:53 PM 53.1 °F 48.0 °F 83% 30.14 in 10.0 mi Calm Calm - N/A   Clear
11:53 PM 50.0 °F 46.9 °F 89% 30.14 in 10.0 mi Calm Calm - N/A   Clear